Location: Catstown
(52.4386°N, 7.2633°W)
Time: 03:56:30
(UTC+00:00)

Okean 1 Rocket - Pass Details

Date: 18 September 2020
Orbit: 606 x 635 km, 82.5° (Epoch: 18 October)

Event Time Altitude Azimuth Distance (km) Brightness Sun altitude
Exits shadow 19:51:21 18° 112° (ESE) 1,576 4.5 -12.1°
Maximum altitude 19:52:50 21° 85° (E) 1,444 4.4 -12.3°
Drops below altitude 10° 19:56:11 10° 37° (NE) 2,034 5.5 -12.8°
Sets 19:58:52 0° 22° (NNE) 2,948 6.5 -13.2°
